Location: Chuathbaluk
(61.5726°N, 159.2454°W)
Time: 14:12:38
(UTC+00:00)

DELFI C3 - Pass Details

Date: 17 January 2021
Orbit: 531 x 550 km, 97.4° (Epoch: 04 March)

Event Time Altitude Azimuth Distance (km) Brightness Sun altitude
Exits shadow 04:59:13 29° 20° (NNE) 1,032 ? -19.5°
Drops below altitude 10° 05:01:36 10° 354° (N) 1,841 ? -19.8°
Sets 05:03:50 0° 346° (NNW) 2,742 ? -20.1°
